[[{"header":{"parameterUnit":"m.s-1","parameterCategory":1,"la1":30.2991,"la2":30.254,"lo1":-89.0895,"lo2":-89.0444,"dy":0.0017,"dx":0.0017,"nx":28,"ny":28,"refTime":"2024-04-02T21:00:00:Z","depth":0,"parameterNumber":2,"parameterNumberName":"U-component_of_WINDS"},"data":[0,0,0,0,0,0,0,0,0,0,0,0,0,0,0,0,0,0,0,0,0,0,0,0,0,0,0,0,0,0,0,0,0,0,0,0,0,0,0,0,0,0,0,0,0,0,0,0,0,0,0,0,0,0,0,0,0,0,-3.4425,-3.4427,0,-3.4575,-3.4577,-3.4579,-3.4595,-3.4594,-3.4592,-3.4591,-3.4745,-3.475,-3.4756,0,0,0,0,0,0,0,0,0,0,0,0,0,-3.4152,-3.4157,-3.4425,-3.4427,-3.4429,-3.4575,-3.4577,-3.4579,-3.4596,-3.4594,-3.4592,-3.459,-3.4743,-3.475,-3.4756,0,0,0,0,0,0,0,0,0,0,0,0,0,-3.4283,-3.4159,-3.4424,-3.4455,-3.4459,-3.4574,-3.4577,-3.458,-3.4596,-3.4594,-3.4592,-3.4589,-3.4741,-3.4749,-3.4757,-3.4853,0,0,-3.4782,-3.4786,0,0,0,0,0,0,0,0,-3.4276,-3.4293,-3.4448,-3.4453,-3.4458,-3.4564,-3.4537,-3.4671,-3.4597,-3.4544,-3.4591,-3.4588,-3.4687,-3.4699,-3.4732,-3.486,-3.4867,-3.4783,-3.4788,-3.4791,-3.4794,0,0,0,0,0,0,0,-3.4267,-3.4287,-3.4484,-3.445,-3.4456,-3.4461,-3.4477,-3.4563,-3.4626,-3.4548,-3.455,-3.4568,-3.4689,-3.4724,-3.4736,-3.4869,-3.4783,-3.479,-3.4795,-3.4798,-3.5082,-3.5085,0,0,0,0,0,0,-3.4252,-3.4279,-3.448,-3.4489,-3.4359,-3.4467,-3.4485,-3.4532,-3.4625,-3.4637,-3.4569,-3.4568,-3.4711,-3.4726,-3.4741,-3.4859,-3.4791,-3.4799,-3.4804,-3.508,-3.5083,-3.5086,0,0,0,0,0,0,-3.4246,-3.427,-3.4473,-3.4385,-3.4411,-3.4474,-3.4527,-3.4536,-3.4572,-3.4641,-3.4652,-3.4594,-3.471,-3.473,-3.4825,-3.4864,-3.4803,-3.481,-3.5077,-3.5081,-3.5084,-3.5094,0,0,0,0,0,0,-3.4238,-3.4268,-3.4305,-3.4385,-3.4416,-3.4554,-3.453,-3.4541,-3.4586,-3.4586,-3.4667,-3.4678,-3.471,-3.4812,-3.4833,-3.4874,-3.4817,-3.5073,-3.5078,-3.5083,-3.5091,-3.5098,-3.5104,0,0,0,0,0,-3.4229,-3.4302,-3.4307,-3.4331,-3.4463,-3.4557,-3.4574,-3.4608,-3.4589,-3.4627,-3.4671,-3.4676,-3.4857,-3.4822,-3.4845,-3.489,-3.5071,-3.5077,-3.5083,-3.5087,-3.5096,-3.5104,0,0,0,0,0,0,-3.4224,-3.4313,-3.4319,-3.4421,-3.4481,-3.4559,-3.4608,-3.4617,-3.4684,-3.468,-3.4721,-3.4739,-3.4832,-3.4871,-3.483,-3.4987,-3.4962,-3.4973,-3.4958,-3.4967,-3.4974,-3.4961,-3.4824,0,0,0,0,0,-3.4235,-3.4304,-3.4378,-3.446,-3.449,-3.4544,-3.4586,-3.4607,-3.4671,-3.4697,-3.4748,-3.481,-3.4881,-3.4926,-3.4996,-3.5097,-3.5114,-3.5139,-3.5146,-3.5151,-3.5159,-3.5215,-3.5226,-3.5105,-3.5105,-3.5105,0,0,-3.4258,-3.4315,-3.4356,-3.446,-3.451,-3.4579,-3.4565,-3.4639,-3.4691,-3.4708,-3.48,-3.484,-3.4912,-3.501,-3.5056,-3.5046,-3.5197,-3.5159,-3.5162,-3.5168,-3.5222,-3.5233,-3.5243,-3.5109,-3.5108,-3.5107,0,0,-3.4335,-3.4386,-3.4459,-3.4509,-3.4584,-3.4619,-3.4637,-3.4714,-3.4741,-3.4834,-3.4848,-3.4911,-3.5032,-3.5082,-3.5124,-3.522,-3.5226,-3.5242,-3.5276,-3.533,-3.5339,-3.5348,-3.538,-3.5392,-3.525,-3.525,-3.525,0,-3.4354,-3.4459,-3.4496,-3.457,-3.4615,-3.4634,-3.4708,-3.4755,-3.4848,-3.4878,-3.4866,-3.5018,-3.5068,-3.5177,-3.5201,-3.5234,-3.5255,-3.5231,-3.5335,-3.5344,-3.5353,-3.5384,-3.5396,-3.5251,-3.5251,-3.5251,-3.5251,0,-3.4478,-3.4551,-3.4601,-3.469,-3.4742,-3.4816,-3.4863,-3.491,-3.4928,-3.4964,-3.5059,-3.512,-3.5201,-3.5229,-3.5247,-3.5341,-3.5332,-3.5327,-3.5302,-3.5365,-3.5395,-3.5407,-3.5253,-3.5253,-3.5252,-3.5252,0,0,-3.4555,-3.4663,-3.4681,-3.4721,-3.4805,-3.4862,-3.4937,-3.5016,-3.5055,-3.512,-3.5182,-3.5285,-3.5281,-3.5328,-3.5352,-3.5399,-3.5469,-3.5388,-3.539,-3.5399,-3.5575,-3.5576,-3.559,-3.5475,-3.5477,-3.5479,-3.5568,0,-3.464,-3.4772,-3.4807,-3.492,-3.4987,-3.5006,-3.5071,-3.513,-3.5166,-3.5228,-3.5269,-3.534,-3.533,-3.5358,-3.5406,-3.545,-3.5505,-3.5445,-3.5532,-3.5535,-3.5511,-3.5606,-3.5608,-3.5689,-3.558,-3.5582,-3.5584,0,-3.4756,-3.4822,-3.4941,-3.5015,-3.5045,-3.5102,-3.5177,-3.5237,-3.5304,-3.5327,-3.538,-3.5399,-3.5477,-3.545,-3.5558,-3.5516,-3.5555,-3.5582,-3.5586,-3.5594,-3.5561,-3.5614,-3.5715,-3.5726,-3.5603,-3.5602,-3.56,0,-3.4797,-3.4916,-3.5002,-3.5036,-3.5126,-3.5166,-3.5205,-3.527,-3.5315,-3.5381,-3.541,-3.5485,-3.5525,-3.5582,-3.5621,-3.5598,-3.5725,-3.5702,-3.5746,-3.5744,-3.5769,-3.5767,-3.5876,-3.5798,-3.5798,-3.5798,-3.5797,0,-3.4887,-3.4958,-3.5022,-3.5074,-3.5155,-3.5195,-3.5274,-3.5314,-3.5371,-3.5432,-3.5454,-3.5511,-3.556,-3.5623,-3.5655,-3.5738,-3.5757,-3.5777,-3.5784,-3.5774,-3.5771,-3.5797,-3.5792,-3.5801,-3.58,-3.58,-3.5799,0,-3.4945,-3.4991,-3.5086,-3.5163,-3.5184,-3.524,-3.5306,-3.5358,-3.5396,-3.5472,-3.5492,-3.5551,-3.5627,-3.5672,-3.5768,-3.5789,-3.588,-3.5887,-3.5857,-3.586,-3.5901,-3.5895,-3.6029,-3.6048,-3.5959,-3.596,-3.5961,0,-3.4998,-3.5053,-3.5137,-3.5179,-3.5218,-3.5286,-3.5332,-3.5374,-3.5421,-3.5501,-3.5543,-3.562,-3.5684,-3.5803,-3.5855,-3.5928,-3.5934,-3.5976,-3.5945,-3.5933,-3.5932,-3.5928,-3.5933,-3.5981,-3.5981,-3.5982,-3.5983,0,-3.5087,-3.5106,-3.5172,-3.5245,-3.5299,-3.5359,-3.5419,-3.5452,-3.5504,-3.5556,-3.5633,-3.5683,-3.578,-3.5856,-3.5933,-3.5974,-3.5987,-3.5992,-3.6006,-3.5995,-3.5974,-3.5984,-3.5869,-3.5988,-3.5988,-3.5987,-3.5987,-3.5987,-3.5143,-3.5192,-3.5258,-3.533,-3.5379,-3.5434,-3.5486,-3.5531,-3.5596,-3.5678,-3.5699,-3.578,-3.5845,-3.5951,-3.5993,-3.6057,-3.605,-3.607,-3.6075,-3.6079,-3.6078,-3.5966,-3.6071,-3.6071,-3.6071,-3.6071,-3.6071,0,-3.523,-3.5274,-3.534,-3.5422,-3.5478,-3.5486,-3.5553,-3.5599,-3.567,-3.573,-3.5792,-3.588,-3.5953,-3.6011,-3.6086,-3.6126,-3.6134,-3.6144,-3.614,-3.6149,-3.6081,-3.6061,-3.6137,-3.6137,-3.6137,-3.6136,-3.6136,-3.6136,-3.5282,-3.5366,-3.5394,-3.5502,-3.5545,-3.5624,-3.5661,-3.5712,-3.5759,-3.5857,-3.5918,-3.5955,-3.6014,-3.6094,-3.6161,-3.6176,-3.6202,-3.6211,-3.6227,-3.6162,-3.6154,-3.6147,-3.6128,-3.6217,-3.6217,-3.6289,-3.629,-3.629]},{"header":{"parameterUnit":"m.s-1","parameterCategory":1,"la1":30.2991,"la2":30.254,"lo1":-89.0895,"lo2":-89.0444,"dy":0.0017,"dx":0.0017,"nx":28,"ny":28,"refTime":"2024-04-02T21:00:00:Z","depth":0,"parameterNumber":3,"parameterNumberName":"V-component_of_WINDS"},"data":[0,0,0,0,0,0,0,0,0,0,0,0,0,0,0,0,0,0,0,0,0,0,0,0,0,0,0,0,0,0,0,0,0,0,0,0,0,0,0,0,0,0,0,0,0,0,0,0,0,0,0,0,0,0,0,0,0,0,4.5983,4.5985,0,4.6213,4.6216,4.6219,4.6294,4.6293,4.6292,4.6291,4.6522,4.6529,4.6536,0,0,0,0,0,0,0,0,0,0,0,0,0,4.5603,4.5609,4.5982,4.5985,4.5988,4.6213,4.6216,4.6219,4.6294,4.6293,4.6292,4.629,4.652,4.6528,4.6536,0,0,0,0,0,0,0,0,0,0,0,0,0,4.5794,4.5611,4.5982,4.6053,4.6062,4.6212,4.6216,4.622,4.6294,4.6293,4.6291,4.629,4.6517,4.6527,4.6538,4.6633,0,0,4.657,4.6575,0,0,0,0,0,0,0,0,4.5783,4.5807,4.604,4.6048,4.6058,4.6223,4.6167,4.6358,4.6295,4.6206,4.6291,4.6289,4.6423,4.6442,4.6488,4.6644,4.6654,4.6571,4.6577,4.6582,4.6585,0,0,0,0,0,0,0,4.5769,4.5798,4.6074,4.6043,4.6054,4.6072,4.6097,4.6204,4.632,4.6213,4.6219,4.6246,4.6428,4.6478,4.6494,4.6657,4.6571,4.658,4.6587,4.6591,4.6905,4.6906,0,0,0,0,0,0,4.5745,4.5786,4.6066,4.6081,4.5914,4.608,4.6108,4.6172,4.6319,4.634,4.6247,4.6249,4.646,4.6481,4.6502,4.6626,4.6582,4.6592,4.6598,4.6903,4.6905,4.6907,0,0,0,0,0,0,4.5736,4.5769,4.6057,4.5935,4.5973,4.6088,4.6159,4.6177,4.6227,4.6345,4.6365,4.6276,4.646,4.6487,4.6601,4.6635,4.6597,4.6606,4.69,4.6903,4.6906,4.6872,0,0,0,0,0,0,4.5725,4.5766,4.5804,4.5936,4.598,4.6153,4.6161,4.6183,4.6246,4.625,4.6378,4.6397,4.6461,4.6585,4.6611,4.6649,4.6615,4.6898,4.6902,4.6905,4.687,4.6873,4.6876,0,0,0,0,0,4.5711,4.5784,4.5806,4.5839,4.6031,4.6155,4.618,4.6253,4.6248,4.6287,4.6363,4.6393,4.6626,4.6596,4.6626,4.6667,4.6896,4.6901,4.6905,4.6869,4.6873,4.6876,0,0,0,0,0,0,4.5651,4.5802,4.5828,4.5946,4.6037,4.6167,4.6219,4.6254,4.6347,4.6347,4.6432,4.646,4.6567,4.6628,4.6591,4.6768,4.6762,4.6773,4.6725,4.6729,4.6732,4.6715,4.6623,0,0,0,0,0,4.5652,4.5742,4.5868,4.596,4.6005,4.6104,4.616,4.6209,4.6306,4.6345,4.6429,4.6521,4.6615,4.6675,4.6768,4.6879,4.6908,4.6922,4.6925,4.6926,4.6935,4.7,4.7008,4.6922,4.6922,4.6921,0,0,4.5654,4.5748,4.5799,4.595,4.6027,4.6117,4.6136,4.623,4.6298,4.6359,4.6472,4.6536,4.6644,4.6758,4.6811,4.6812,4.6965,4.6932,4.6932,4.6941,4.7005,4.7013,4.702,4.6925,4.6924,4.6924,0,0,4.5705,4.5784,4.587,4.5947,4.6063,4.6129,4.6149,4.6274,4.632,4.6436,4.6484,4.6564,4.6724,4.68,4.6859,4.6938,4.697,4.6965,4.698,4.7041,4.7048,4.7055,4.7084,4.7094,4.6973,4.6973,4.6973,0,4.5692,4.5832,4.5909,4.6003,4.6068,4.6128,4.6216,4.6286,4.6425,4.6468,4.6467,4.667,4.6747,4.6879,4.6899,4.6944,4.697,4.6952,4.7041,4.7049,4.7056,4.7085,4.7096,4.6972,4.6972,4.6972,4.6973,0,4.5812,4.5908,4.5963,4.6099,4.617,4.6259,4.6349,4.6411,4.6453,4.6518,4.6635,4.6729,4.6843,4.6877,4.6918,4.7016,4.7013,4.7025,4.7021,4.7062,4.7091,4.7102,4.6971,4.6971,4.6971,4.6972,0,0,4.5832,4.601,4.603,4.6093,4.6225,4.63,4.6391,4.6505,4.6557,4.6651,4.673,4.6864,4.6877,4.6944,4.6994,4.7048,4.7106,4.7054,4.7058,4.7062,4.7221,4.7213,4.7224,4.7127,4.713,4.7132,4.7213,0,4.5901,4.6071,4.6143,4.6278,4.6368,4.6427,4.6507,4.6596,4.6659,4.6743,4.6812,4.6907,4.6915,4.6957,4.7012,4.7087,4.714,4.7082,4.7202,4.7205,4.7175,4.7239,4.7231,4.7303,4.7224,4.7226,4.7228,0,4.6005,4.6102,4.6247,4.637,4.6411,4.6482,4.6592,4.6671,4.6773,4.6815,4.6891,4.6938,4.7035,4.7023,4.7159,4.7118,4.7171,4.7215,4.7219,4.7235,4.722,4.7258,4.7327,4.7339,4.7246,4.7244,4.7243,0,4.6008,4.6174,4.6284,4.6335,4.6481,4.6529,4.6592,4.6693,4.6756,4.6851,4.6894,4.6997,4.7055,4.7134,4.7208,4.7192,4.7336,4.733,4.7374,4.7372,4.7404,4.7401,4.7484,4.7434,4.7433,4.7433,4.7433,0,4.608,4.6166,4.6287,4.6354,4.6453,4.6534,4.6629,4.6695,4.6784,4.6865,4.692,4.6993,4.7085,4.717,4.7228,4.7332,4.7357,4.7393,4.7408,4.739,4.7386,4.7427,4.7425,4.7436,4.7436,4.7435,4.7434,0,4.6101,4.6185,4.6308,4.6436,4.647,4.6537,4.6647,4.6713,4.6778,4.6879,4.6907,4.701,4.7113,4.7194,4.7327,4.7366,4.7476,4.7491,4.7442,4.745,4.749,4.7486,4.7604,4.7625,4.7558,4.7559,4.7559,0,4.6142,4.6211,4.6347,4.6405,4.6468,4.6561,4.6627,4.6709,4.6775,4.6896,4.6948,4.7055,4.7146,4.7307,4.7393,4.7495,4.7514,4.7548,4.753,4.751,4.7517,4.7513,4.7521,4.7551,4.7551,4.7552,4.7552,0,4.6207,4.6245,4.6339,4.6448,4.6526,4.6615,4.6704,4.6749,4.6846,4.6917,4.7025,4.7095,4.7232,4.7338,4.7449,4.7512,4.7548,4.7557,4.7573,4.7556,4.7526,4.7545,4.7451,4.7554,4.7554,4.7554,4.7554,4.7554,4.6241,4.6305,4.6412,4.6515,4.6591,4.6674,4.6744,4.6818,4.691,4.703,4.7071,4.7181,4.7281,4.7435,4.7498,4.7585,4.7587,4.7609,4.7616,4.762,4.762,4.751,4.7605,4.7605,4.7605,4.7605,4.7605,0,4.6311,4.6382,4.6476,4.6601,4.6682,4.671,4.6811,4.6876,4.6974,4.7064,4.7153,4.7276,4.7379,4.7472,4.7579,4.763,4.765,4.7656,4.7654,4.7668,4.761,4.7587,4.7638,4.7638,4.7638,4.7638,4.7638,4.7638,4.6357,4.6468,4.6518,4.6667,4.6738,4.6848,4.6904,4.698,4.7053,4.7189,4.7276,4.7336,4.7428,4.7542,4.7637,4.7662,4.77,4.7702,4.7731,4.7676,4.7672,4.7667,4.7646,4.7709,4.7709,4.7781,4.7782,4.7782]}]]